Regional Weather Roundup
Issued by NWS

Home | Current Version | Previous Version | Text Only | Print | Product List | Glossary Off
Versions: 1 2 3 4 5 6 7 8 9 10 11 12 13 14 15 16 17 18 19 20 21 22 23 24 25 26 27 28 29 30 31 32 33 34 35 36 37 38 39 40 41 42 43 44 45 46 47 48 49 50

000
ASUS43 KMPX 012101
RWRMN
WEATHER ROUNDUP FOR MINNESOTA
NATIONAL WEATHER SERVICE TWIN CITIES/CHANHASSEN MN
400 PM CDT SUN MAY 01 2016


NOTE: "FAIR" INDICATES FEW OR NO CLOUDS BELOW 12,000 FEET WITH NO
SIGNIFICANT WEATHER AND/OR OBSTRUCTIONS TO VISIBILITY. N/A MEANS
CURRENT SKY AND/OR WEATHER CONDITIONS ARE NOT AVAILABLE.

MNZ060>063-068>070-012200-
   Twin Cities Metro

CITY           SKY/WX    TMP DP  RH WIND       PRES   REMARKS
TWIN CITIES    PTSUNNY   60  34  37 NE10      30.10F
ST PAUL        PTSUNNY   63  38  39 VRB5      30.10F
CRYSTAL        MOSUNNY   63  34  33 NE8G22    30.10S
BLAINE         MOSUNNY   61  36  39 MISG      30.11S
EDEN PRAIRIE   MOSUNNY   63  35  35 E9        30.10S
SOUTH ST PAUL  PTSUNNY   62  34  35 N8        30.09F
LAKE ELMO      PTSUNNY   61  37  41 NE9       30.10F
$$
MNZ001>005-007-008-013>017-022>024-027-028-012200-
   Northwest Minnesota

CITY           SKY/WX    TMP DP  RH WIND       PRES   REMARKS
BEMIDJI        SUNNY     60  31  33 NE9       30.16F
HALLOCK        SUNNY     64  19  17 N3        30.18F
ROSEAU         SUNNY     61  34  36 SE8       30.19F
WARROAD        SUNNY     57  32  38 E9        30.21F
THIEF RVR FALL SUNNY     63  27  25 N9        30.19F
CROOKSTON      SUNNY     64  28  25 N9        30.18F
FOSSTON        SUNNY     63  28  27 N9        30.18F
DETROIT LAKES  SUNNY     61  32  33 NE5       30.17F
MOORHEAD       SUNNY     63  28  27 N9G18     30.18F
PARK RAPIDS    SUNNY     62  27  26 E9        30.15F
MAHNOMEN       FAIR      61  27  27 N9G16     30.17F
$$
MNZ006-009>011-018-025>026-012200-
   North Central Minnesota

CITY           SKY/WX    TMP DP  RH WIND       PRES   REMARKS
BAUDETTE       SUNNY     60  27  28 N16       30.18F
FLAG ISLAND    SUNNY     50  36  57 CALM      30.19F
INTL FALLS     SUNNY     57  28  33 E6        30.18F
WASKISH        SUNNY     63  30  29 N8        30.17F
BIG FORK       SUNNY     61  28  29 NE3       30.16S
LONGVILLE      SUNNY     61  28  29 NE6       30.16S
GRAND RAPIDS   SUNNY     59  27  29 E7        30.17F
CRANE LAKE     SUNNY     57  28  33 NW6       30.19F
ORR            SUNNY     61  25  25 CALM      30.14F
COOK           SUNNY     57  27  30 CALM      30.16F
WALKER         FAIR      57  31  37 SE5       30.17F
$$
MNZ012-019>021-037-012200-
   Northeast Minnesota

CITY           SKY/WX    TMP DP  RH WIND       PRES   REMARKS
DULUTH         MOSUNNY   54  32  43 E16G22    30.18S
ELY            SUNNY     57  28  33 NE6       30.15F
HIBBING        SUNNY     57  28  33 VRB5      30.15F
EVELETH        MOSUNNY   59  30  33 NE5       30.15F
DULUTH HARBOR  SUNNY     43  37  81 NE8       30.22S
TWO HARBORS    SUNNY     54  41  62 E9        30.17F
SILVER BAY     SUNNY     52  37  58 E7        30.17F
GRAND MARAIS     N/A     43  35  73 CALM      30.21F
G MARAIS ARPRT SUNNY     52  30  43 SE6       30.18F
$$
MNZ029>031-032-039>041-046>048-054>057-064-012200-
   West Central Minnesota

CITY           SKY/WX    TMP DP  RH WIND       PRES   REMARKS
FERGUS FALLS   SUNNY     61  32  33 NE7       30.14F
WHEATON        SUNNY     64  34  32 N8G17     30.19F
MORRIS         SUNNY     63  30  29 E6G17     30.15F
ALEXANDRIA     SUNNY     61  29  29 N13       30.16F
ELBOW LAKE     FAIR      59  32  36 NE14      30.17F
WADENA         SUNNY     59  32  36 E7        30.15F
GLENWOOD       SUNNY     61  28  29 N10G17    30.16S
APPLETON       SUNNY     61  27  27 NE8       30.16S
BENSON         SUNNY     63  25  23 E8G18     30.16S
ORTONVILLE     SUNNY     61  30  31 N10G16    30.17F
MADISON        SUNNY     61  28  29 NE10G18   30.16F
WILLMAR        FAIR      61  34  36 E9G22     30.16S
$$
MNZ033>034-036-042>043-049>051-058-059-012200-
   Central Minnesota

CITY           SKY/WX    TMP DP  RH WIND       PRES   REMARKS
ST CLOUD       SUNNY     61  31  32 N7        30.13F
SAUK CENTRE    FAIR      58  31  35 NE9       30.16S
PAYNESVILLE    SUNNY     58  31  35 N9        30.15F
AITKIN         MOSUNNY   63  25  23 N6        30.13F
PINE RIVER     SUNNY     61  34  36 N5        30.18F
BRAINERD       SUNNY     60  30  32 NE14      30.15F
STAPLES        SUNNY     61  27  27 NE7       30.15F
LONG PRAIRIE   FAIR      57  30  35 W8        30.15F
LITTLE FALLS   SUNNY     59  30  33 E9        30.15F
LITCHFIELD     SUNNY     61  34  36 E8        30.13F
BUFFALO        MOSUNNY   60  33  36 NE8       30.13F
MAPLE LAKE     SUNNY     60  38  43 NE9       30.14F
HUTCHINSON       N/A     60  38  44 N5        30.14
$$
MNZ037-044-045-052-053-012200-
   East Central Minnesota

CITY           SKY/WX    TMP DP  RH WIND       PRES   REMARKS
PRINCETON        N/A     63  36  36 N7G16     30.13F
MORA           SUNNY     59  32  36 NE6       30.15F
CAMBRIDGE      SUNNY     63  41  45 NE7G16    30.11S
RUSH CITY      MOSUNNY   61  37  40 N8G18     30.12F
MOOSE LAKE     SUNNY     57  34  41 NE10      30.14F
HINCKLEY       FAIR      59  36  41 NE13G18   30.13F
CLOQUET        SUNNY     54  30  40 E10G17    30.17S
MCGREGOR       MOSUNNY   61  32  33 N6        30.15F
$$
MNZ071>073-080-081-089-090-097-098-012200-
   Southwest Minnesota

CITY           SKY/WX    TMP DP  RH WIND       PRES   REMARKS
MONTEVIDEO     SUNNY     63  32  31 N10G16    30.17F
GRANITE FALLS  SUNNY     62  35  36 N8G20     30.16F
CANBY          SUNNY     62  35  37 NE8       30.17F
MARSHALL       SUNNY     58  33  39 NE15      30.15F
REDWOOD FALLS  MOSUNNY   61  31  32 VRB7      30.13F
OLIVIA         SUNNY     59  32  36 N3G18     30.13F
PIPESTONE      MOSUNNY   55  30  38 NE7       30.15S
WINDOM         PTSUNNY   55  36  47 N10G16    30.13S
WORTHINGTON    CLOUDY    54  38  54 N14       30.14S
JACKSON        CLOUDY    55  36  47 VRB14G20  30.12S
TRACY          MOSUNNY   59  36  43 NE12G17   30.14F
SLAYTON        MOSUNNY   55  34  45 N14       30.15F
$$
MNZ065>067-074>077-082>085-091>093-012200-
   South Central Minnesota

CITY           SKY/WX    TMP DP  RH WIND       PRES   REMARKS
MANKATO        PTSUNNY   57  36  44 N10G16    30.10F
NEW ULM        PTSUNNY   57  36  44 N7        30.12S
ST JAMES       MOSUNNY   54  36  50 N12G17    30.12F
FAIRMONT       CLOUDY    55  34  44 NE15      30.10S
GLENCOE        PTSUNNY   60  41  49 NE7       30.12S
FARIBAULT      MOSUNNY   61  36  39 N12G18    30.09S
OWATONNA       MOSUNNY   61  36  39 NE13G20   30.07F
WASECA         PTSUNNY   59  37  44 N15       30.09F
ALBERT LEA     CLOUDY    55  36  47 NE10      30.07S
$$
MNZ078>079-086>088-094>096-012200-
   Southeast Minnesota

CITY           SKY/WX    TMP DP  RH WIND       PRES   REMARKS
ROCHESTER      CLOUDY    57  39  51 E13       30.07F
RED WING       PTSUNNY   64  30  27 NE7       30.06F
STANTON        PTSUNNY   64  33  32 N12G18    30.07S
DODGE CENTER   CLOUDY    61  36  39 NE10G17   30.06F
WINONA         CLOUDY    59  39  47 SE8       30.06F
AUSTIN         CLOUDY    55  37  50 NE8       30.06S
PRESTON        CLOUDY    53  38  58 NE14      30.06S
$$
ABBREVIATIONS USED IN REMARKS
   TC - TEMPERATURES IN CELSIUS
  WCI - WIND CHILL INDEX
   HX - HEAT INDEX
  VSB - VISIBILITY
$$




USA.gov is the U.S. government's official web portal to all federal, state and local government web resources and services.